Weather History for Abingdon, VA

Change the Weather History Date:

Thursday, January 31, 2013

  Actual Average (KTRI) Record (KTRI)
Temperature  
Mean Temperature 38 °F 36 °F  
Max Temperature 43 °F 46 °F 76 °F (2002)
Min Temperature 30 °F 26 °F -15 °F (1966)
Degree Days  
Heating Degree Days 28 29  
Month to date heating degree days 925  
Since 1 July heating degree days 2654  
Cooling Degree Days 0 0  
Month to date cooling degree days 0  
Year to date cooling degree days 0  
Moisture  
Dew Point 26 °F    
Average Humidity 74    
Maximum Humidity 95    
Minimum Humidity 56    
Precipitation  
Precipitation 0.02 in 0.12 in 1.75 in (1957)
Month to date precipitation 3.37  
Year to date precipitation 3.37  
Snow  
Snow 0.00 in 0.20 in - ()
Month to date snowfall 4.7  
Since 1 July snowfall 7.4  
Snow Depth -    
Sea Level Pressure  
Sea Level Pressure 29.83 in    
Wind  
Wind Speed 14 mph (WNW)    
Max Wind Speed 21 mph    
Max Gust Speed 36 mph    
Visibility 9 miles    
Events Rain , Snow    
T = Trace of Precipitation, MM = Missing Value Source: NWS Daily Summary

Daily Weather History Graph

Daily Weather History Graph

Search for Another Location

Airport:

Trip Planner

Search our weather history database for the weather conditions in past years. The results will help you decide how hot, cold, wet, or windy it might be!

Date:

Astronomy

Jan. 31, 2013 Rise Set
Actual Time 7:30 AM EST 5:53 PM EST
Civil Twilight 7:03 AM EST 6:20 PM EST
Nautical Twilight 6:32 AM EST 6:51 PM EST
Astronomical Twilight 6:02 AM EST 7:21 PM EST
Moon 10:44 PM EST (1/31) 9:38 AM EST (1/31)
Length of Visible Light 11h 16m
Length of Day
10h 22m
Waning Gibbous, 80% of the Moon is Illuminated
Jan 31
Waning Gibbous
Feb 3
Last Quarter
Feb 10
New
Feb 17
First Quarter
Feb 25
Full

Hourly Weather History & Observations

Time (EST) Temp. Windchill Dew Point Humidity Pressure Visibility Wind Dir Wind Speed Gust Speed Precip Events Conditions
12:15 AM 45.1 °F 38.8 °F 43.3 °F 93% 29.49 in 7.0 mi West 13.8 mph 24.2 mph 0.01 in Rain Light Rain
12:35 AM 43.9 °F 36.2 °F 41.0 °F 90% 29.53 in 10.0 mi WNW 17.3 mph 25.3 mph 0.02 in Rain Light Rain
12:55 AM 43.2 °F 35.3 °F 38.1 °F 82% 29.55 in 10.0 mi WNW 17.3 mph 29.9 mph 0.02 in   Overcast
1:15 AM 42.4 °F 34.4 °F 37.4 °F 82% 29.56 in 10.0 mi West 17.3 mph 25.3 mph N/A   Overcast
1:35 AM 41.7 °F 34.4 °F 38.3 °F 88% 29.57 in 10.0 mi West 13.8 mph 23.0 mph N/A Rain Light Rain
1:55 AM 40.5 °F 32.1 °F 38.3 °F 92% 29.58 in 10.0 mi West 16.1 mph 21.9 mph N/A   Light Drizzle
2:15 AM 39.6 °F 32.1 °F 37.4 °F 92% 29.58 in 10.0 mi WNW 12.7 mph 24.2 mph N/A   Light Drizzle
2:35 AM 39.4 °F 31.1 °F 36.0 °F 88% 29.59 in 10.0 mi WNW 15.0 mph 23.0 mph N/A   Overcast
2:55 AM 38.1 °F 28.4 °F 35.8 °F 91% 29.62 in 5.0 mi NW 18.4 mph 26.5 mph N/A   Drizzle
3:15 AM 36.0 °F 25.0 °F 34.7 °F 95% 29.64 in 3.0 mi NW 20.7 mph 35.7 mph N/A Snow Light Snow
3:35 AM 35.6 °F 26.2 °F 32.9 °F 90% 29.66 in 5.0 mi WNW 15.0 mph 29.9 mph N/A Snow Light Snow
3:55 AM 34.5 °F 24.5 °F 32.4 °F 92% 29.68 in 7.0 mi WNW 16.1 mph 26.5 mph N/A Snow Light Snow
4:15 AM 33.1 °F 22.2 °F 31.8 °F 95% 29.69 in 2.5 mi WNW 17.3 mph 27.6 mph N/A Snow Light Snow
4:35 AM 33.4 °F 23.5 °F 30.0 °F 87% 29.71 in 10.0 mi WNW 15.0 mph 24.2 mph N/A   Overcast
4:55 AM 32.9 °F 23.2 °F 29.3 °F 87% 29.72 in 10.0 mi WNW 13.8 mph 25.3 mph N/A   Overcast
5:15 AM 32.4 °F 20.6 °F 28.4 °F 85% 29.73 in 10.0 mi WNW 19.6 mph 27.6 mph N/A Snow Light Snow
5:35 AM 32.0 °F 21.2 °F 28.2 °F 86% 29.74 in 7.0 mi WNW 16.1 mph 25.3 mph N/A Snow Light Snow
5:55 AM 32.0 °F 21.6 °F 26.2 °F 79% 29.75 in 10.0 mi WNW 15.0 mph 27.6 mph N/A Snow Light Snow
6:15 AM 31.8 °F 21.4 °F 26.2 °F 80% 29.76 in 10.0 mi WNW 15.0 mph 31.1 mph N/A Snow Light Snow
6:35 AM 31.6 °F 22.1 °F 25.0 °F 76% 29.77 in 10.0 mi WNW 12.7 mph 26.5 mph N/A Snow Light Snow
6:55 AM 31.1 °F 20.1 °F 24.6 °F 77% 29.77 in 10.0 mi WNW 16.1 mph 20.7 mph N/A   Overcast
7:15 AM 30.9 °F 20.7 °F 23.9 °F 75% 29.78 in 10.0 mi WNW 13.8 mph 24.2 mph N/A   Overcast
7:35 AM 30.7 °F 20.9 °F 23.0 °F 73% 29.78 in 10.0 mi WNW 12.7 mph 24.2 mph N/A   Overcast
7:55 AM 31.1 °F 20.9 °F 22.5 °F 70% 29.81 in 10.0 mi NW 13.8 mph 23.0 mph N/A   Overcast
8:15 AM 31.3 °F 22.1 °F 23.5 °F 73% 29.82 in 10.0 mi WNW 11.5 mph 19.6 mph N/A   Overcast
8:35 AM 31.5 °F 21.4 °F 24.3 °F 75% 29.83 in 10.0 mi WNW 13.8 mph 17.3 mph N/A   Overcast
8:55 AM 31.3 °F 23.3 °F 25.7 °F 80% 29.84 in 10.0 mi WNW 9.2 mph 17.3 mph N/A Snow Light Snow
9:15 AM 31.3 °F 20.3 °F 23.9 °F 74% 29.85 in 10.0 mi West 16.1 mph 25.3 mph N/A Snow Light Snow
9:35 AM 31.6 °F 20.7 °F 21.6 °F 66% 29.86 in 10.0 mi WNW 16.1 mph 27.6 mph N/A   Overcast
9:55 AM 32.0 °F 22.1 °F 21.9 °F 66% 29.87 in 10.0 mi WNW 13.8 mph 26.5 mph N/A   Overcast
10:15 AM 32.0 °F 20.8 °F 22.5 °F 68% 29.89 in 10.0 mi West 17.3 mph 23.0 mph N/A   Overcast
10:35 AM 32.0 °F 22.5 °F 23.7 °F 71% 29.89 in 10.0 mi WNW 12.7 mph 20.7 mph N/A   Overcast
10:55 AM 31.5 °F 20.1 °F 24.3 °F 75% 29.90 in 7.0 mi WNW 17.3 mph 26.5 mph N/A Snow Light Snow
11:15 AM 32.0 °F 22.1 °F 25.7 °F 78% 29.90 in 10.0 mi WNW 13.8 mph 24.2 mph N/A Snow Light Snow
11:35 AM 32.0 °F 22.5 °F 24.6 °F 74% 29.90 in 10.0 mi WNW 12.7 mph 23.0 mph N/A Snow Light Snow
11:55 AM 32.0 °F 22.5 °F 25.0 °F 75% 29.90 in 10.0 mi West 12.7 mph 21.9 mph N/A Snow Light Snow
12:15 PM 32.7 °F 22.5 °F 25.0 °F 73% 29.90 in 10.0 mi WNW 15.0 mph 21.9 mph N/A   Overcast
12:35 PM 32.4 °F 23.0 °F 24.6 °F 73% 29.90 in 10.0 mi WNW 12.7 mph 26.5 mph N/A   Overcast
12:55 PM 32.2 °F 21.4 °F 24.1 °F 72% 29.89 in 10.0 mi WNW 16.1 mph 28.8 mph N/A   Overcast
1:15 PM 32.0 °F 22.1 °F 24.3 °F 73% 29.90 in 5.0 mi NW 13.8 mph 24.2 mph N/A Snow Light Snow
1:35 PM 34.0 °F 23.4 °F 23.7 °F 66% 29.90 in 10.0 mi WNW 17.3 mph 28.8 mph N/A   Overcast
1:55 PM 32.9 °F 23.2 °F 23.0 °F 67% 29.91 in 10.0 mi NW 13.8 mph 21.9 mph N/A Snow Light Snow
2:15 PM 33.1 °F 22.2 °F 23.5 °F 68% 29.91 in 10.0 mi WNW 17.3 mph 25.3 mph N/A Snow Light Snow
2:35 PM 33.3 °F 24.1 °F 23.5 °F 68% 29.92 in 10.0 mi WNW 12.7 mph 26.5 mph N/A   Overcast
2:55 PM 33.8 °F 23.5 °F 23.9 °F 67% 29.92 in 10.0 mi West 16.1 mph 24.2 mph N/A   Overcast
3:15 PM 34.3 °F 25.9 °F 23.9 °F 66% 29.92 in 10.0 mi WNW 11.5 mph 27.6 mph N/A   Overcast
3:35 PM 34.7 °F 23.4 °F 21.9 °F 60% 29.93 in 10.0 mi WNW 20.7 mph 27.6 mph N/A   Mostly Cloudy
3:55 PM 35.2 °F 25.8 °F 21.9 °F 58% 29.94 in 10.0 mi West 15.0 mph 25.3 mph N/A   Mostly Cloudy
4:15 PM 35.2 °F 27.6 °F 21.6 °F 58% 29.93 in 10.0 mi West 10.4 mph 20.7 mph N/A   Overcast
4:35 PM 35.1 °F 25.9 °F 20.8 °F 56% 29.93 in 10.0 mi West 13.8 mph 20.7 mph N/A   Mostly Cloudy
4:55 PM 35.2 °F 26.2 °F 21.0 °F 56% 29.92 in 10.0 mi West 13.8 mph 19.6 mph N/A   Overcast
5:15 PM 35.4 °F 26.0 °F 21.2 °F 56% 29.92 in 10.0 mi West 15.0 mph 21.9 mph N/A   Overcast
5:35 PM 35.2 °F 27.1 °F 21.6 °F 58% 29.92 in 10.0 mi West 11.5 mph 17.3 mph N/A   Overcast
5:55 PM 35.2 °F 27.6 °F 21.9 °F 58% 29.93 in 10.0 mi WNW 10.4 mph 19.6 mph N/A   Overcast
6:15 PM 35.2 °F 28.8 °F 22.1 °F 59% 29.93 in 10.0 mi West 8.1 mph - N/A   Overcast
6:35 PM 35.6 °F 29.2 °F 21.9 °F 58% 29.93 in 10.0 mi West 8.1 mph - N/A   Overcast
6:55 PM 35.1 °F 27.9 °F 22.3 °F 60% 29.94 in 10.0 mi West 9.2 mph - N/A   Overcast
7:15 PM 34.7 °F 28.1 °F 23.0 °F 62% 29.93 in 10.0 mi West 8.1 mph - N/A   Overcast
7:35 PM 34.7 °F 27.5 °F 23.9 °F 65% 29.93 in 10.0 mi West 9.2 mph - N/A   Overcast
7:55 PM 34.5 °F 27.3 °F 24.6 °F 67% 29.94 in 10.0 mi West 9.2 mph - N/A   Overcast
8:15 PM 34.7 °F 28.8 °F 25.0 °F 68% 29.93 in 10.0 mi West 6.9 mph - N/A   Overcast
8:35 PM 34.7 °F 26.9 °F 25.3 °F 69% 29.94 in 10.0 mi West 10.4 mph - N/A   Overcast
9:15 PM 34.7 °F 28.1 °F 25.0 °F 68% 29.94 in 10.0 mi West 8.1 mph - N/A   Overcast
9:35 PM 34.3 °F 27.0 °F 25.2 °F 69% 29.93 in 10.0 mi West 9.2 mph - N/A   Overcast
9:55 PM 34.0 °F 26.0 °F 25.2 °F 70% 29.93 in 10.0 mi West 10.4 mph - N/A   Overcast
10:15 PM 33.1 °F 25.5 °F 25.0 °F 72% 29.91 in 10.0 mi WSW 9.2 mph - N/A   Overcast
10:35 PM 33.4 °F 26.6 °F 25.3 °F 72% 29.92 in 10.0 mi West 8.1 mph - N/A   Overcast
10:55 PM 33.3 °F 26.4 °F 25.2 °F 72% 29.91 in 10.0 mi West 8.1 mph 16.1 mph N/A   Overcast
11:15 PM 33.4 °F 25.4 °F 25.3 °F 72% 29.90 in 10.0 mi West 10.4 mph - N/A   Overcast
11:35 PM 33.8 °F 26.4 °F 25.5 °F 72% 29.90 in 10.0 mi West 9.2 mph - N/A   Overcast
11:55 PM 34.2 °F 25.7 °F 25.7 °F 71% 29.89 in 10.0 mi West 11.5 mph 18.4 mph N/A   Overcast